Home   Weather   Cranbrook   Past weeks

Flag for Canada Past Weather in Cranbrook, British Columbia, Canada — Yesterday and Last 2 Weeks

Now
25 °F

Light snow. Mostly cloudy.


Feels Like: 17 °F
Forecast: 16 / 26 °F
Wind: 7 mph from Southeast

Location: Cranbrook

Current Time: Feb 26, 2017 at 12:52:11 am

Latest Report: Feb 25, 2017 at 11:44 pm


Visibility: 15 mi

Pressure: 29.88 "Hg (26.54 "Hg at 933m altitude)

Humidity: 80%

Dew Point: 19 °F

Location of CranbrookLocation

Past Weather in Cranbrook — Graph

°F

Cranbrook Temperature Yesterday

Maximum temperature yesterday: 30 °F (at 3:00 pm)
Minimum temperature yesterday: 5 °F (at 7:00 am)
Average temperature yesterday: 21 °F

High & Low Weather Summary for the Past Weeks

 TemperatureHumidityPressure
High45 °F (Feb 17, 1:00 pm)100% (Feb 15, 11:00 pm)30.61 "Hg (Feb 15, 11:00 pm)
Low5 °F (Feb 25, 7:00 am)34% (Feb 24, 3:00 pm)29.42 "Hg (Feb 16, 3:00 pm)
Average29 °F78%29.97 "Hg
* Reported Feb 10 11:00 pm — Feb 25 11:00 pm, Cranbrook, Weather by CustomWeather, © 2017

Note: Actual official high and low records may vary slightly from our data, if they occured in-between our weather recording intervals... More about our weather records

Advertising

Cranbrook Weather History for the Previous 24 Hours

Scroll right to see more
 ConditionsComfort  
Time TempWeatherWind HumidityBarometerVisibility
11:00 pm
Sat, Feb 25
25 °FMostly cloudy.8 mph74%29.88 "Hg25 mi
10:00 pm27 °FMostly cloudy.8 mph64%29.89 "Hg25 mi
9:00 pm27 °FMostly cloudy.No wind54%29.90 "Hg25 mi
8:00 pm27 °FMostly cloudy.8 mph54%29.90 "Hg25 mi
7:00 pm27 °FMostly cloudy.10 mph54%29.91 "Hg25 mi
6:00 pm28 °FOvercast.14 mph51%29.90 "Hg25 mi
5:00 pm28 °FMore clouds than sun.13 mph47%29.91 "Hg25 mi
4:00 pm30 °FMostly cloudy.8 mph43%29.91 "Hg25 mi
3:00 pm30 °FOvercast.12 mph43%29.92 "Hg25 mi
2:00 pm28 °FMostly cloudy.7 mph51%29.95 "Hg25 mi
1:00 pm28 °FBroken clouds.6 mph47%29.99 "Hg25 mi
12:00 pm25 °FScattered clouds.5 mph54%30.02 "Hg25 mi
11:00 am19 °FScattered clouds.No wind63%30.05 "Hg25 mi
10:00 am18 °FScattered clouds.2 mph62%30.06 "Hg25 mi
9:00 am10 °FScattered clouds.5 mph79%30.10 "Hg25 mi
8:00 am9 °FPassing clouds.3 mph85%30.10 "Hg25 mi
7:00 am5 °FPassing clouds.3 mph92%30.10 "Hg25 mi
6:00 am9 °FPassing clouds.No wind85%30.09 "Hg25 mi
5:00 am12 °FPassing clouds.3 mph79%30.09 "Hg25 mi
4:00 am12 °FPassing clouds.No wind79%30.11 "Hg25 mi
3:00 am16 °FPassing clouds.2 mph79%30.12 "Hg25 mi
2:00 am18 °FPassing clouds.3 mph73%30.14 "Hg25 mi
1:00 am18 °FPassing clouds.No wind68%30.16 "Hg25 mi
12:00 am18 °FPassing clouds.2 mph73%30.18 "Hg25 mi
Weather by CustomWeather, © 2017

See weather overviewHow to use our weather pages